WetterOnline ( http://www.wetteronline.de )

Wetter aktuell Karlsruhe

Aktuelles Wetter: Rheinstetten (116m)

6-stündlich | Neueste Meldungen
Ortszeit Temperatur Wetter
Mo, 20.08. 8:00 18.9° C leicht bewölkt
Mo, 20.08. 2:00 18.0° C fast wolkenlos
So, 19.08. 20:00 28.5° C fast wolkenlos
So, 19.08. 14:00 27.5° C leicht bewölkt
So, 19.08. 8:00 17.8° C bewölkt
So, 19.08. 2:00 17.3° C wolkig
Sa, 18.08. 20:00 26.6° C fast wolkenlos
Sa, 18.08. 14:00 25.5° C wolkenlos
Ortszeit Temperatur Wetter
Mo, 20.08. 8:00 18.9° C leicht bewölkt
Mo, 20.08. 7:50 18.9° C leicht bewölkt
Mo, 20.08. 7:40 18.4° C bedeckt
Mo, 20.08. 7:30 17.7° C bedeckt
Mo, 20.08. 7:20 17.7° C bedeckt
Mo, 20.08. 7:10 17.2° C bedeckt
Mo, 20.08. 7:00 16.5° C fast wolkenlos
Mo, 20.08. 6:30 16.5° C leicht bewölkt
Mo, 20.08. 6:00 16.7° C leicht bewölkt
Mo, 20.08. 5:30 16.9° C wolkig
Mo, 20.08. 5:00 17.1° C bedeckt
Ortszeit Relative Feuchte Sichtweite
Mo, 20.08. 8:00 68% 25 km
Mo, 20.08. 2:00 74% 29 km
So, 19.08. 20:00 36% 70 km
So, 19.08. 14:00 32% 27 km
So, 19.08. 8:00 74% 24 km
So, 19.08. 2:00 82% 16 km
Sa, 18.08. 20:00 45% 30 km
Sa, 18.08. 14:00 48% 21 km
Ortszeit Relative Feuchte Sichtweite
Mo, 20.08. 8:00 68% 25 km
Mo, 20.08. 7:50 68% -
Mo, 20.08. 7:40 70% -
Mo, 20.08. 7:30 73% 25 km
Mo, 20.08. 7:20 73% -
Mo, 20.08. 7:10 74% -
Mo, 20.08. 7:00 77% 23 km
Mo, 20.08. 6:30 79% 27 km
Mo, 20.08. 6:00 77% 29 km
Mo, 20.08. 5:30 77% 29 km
Mo, 20.08. 5:00 75% 30 km
Ortszeit Niederschlagsmenge Niederschlagsart
Mo, 20.08. 8:00 0.0 l/m2 in 12 Std. -
Mo, 20.08. 2:00 0.0 l/m2 in 6 Std. -
So, 19.08. 20:00 0.0 l/m2 in 12 Std. -
So, 19.08. 14:00 0.0 l/m2 in 6 Std. -
So, 19.08. 8:00 0.0 l/m2 in 12 Std. -
So, 19.08. 2:00 0.0 l/m2 in 6 Std. -
Sa, 18.08. 20:00 0.0 l/m2 in 12 Std. -
Sa, 18.08. 14:00 0.0 l/m2 in 6 Std. -
Ortszeit Niederschlagsmenge Niederschlagsart
Mo, 20.08. 8:00 0.0 l/m2 in 1 Std. -
Mo, 20.08. 7:50 keine Meldung -
Mo, 20.08. 7:40 keine Meldung -
Mo, 20.08. 7:30 0.0 l/m2 in 1 Std. -
Mo, 20.08. 7:20 keine Meldung -
Mo, 20.08. 7:10 keine Meldung -
Mo, 20.08. 7:00 0.0 l/m2 in 1 Std. -
Mo, 20.08. 6:30 0.0 l/m2 in 1 Std. -
Mo, 20.08. 6:00 0.0 l/m2 in 1 Std. -
Mo, 20.08. 5:30 0.0 l/m2 in 1 Std. -
Mo, 20.08. 5:00 0.0 l/m2 in 1 Std. -
Ortszeit Stärke Spitze Richtung
km/h Bft. km/h Grad Sektor
Mo, 20.08. 8:00 7 2 15 240° SW
Mo, 20.08. 2:00 7 2 11 220° SW
So, 19.08. 20:00 9 2 24 260° W
So, 19.08. 14:00 7 2 14 300° NW
So, 19.08. 8:00 4 1 7 160° S
So, 19.08. 2:00 4 1 7 280° W
Sa, 18.08. 20:00 7 2 29 270° W
Sa, 18.08. 14:00 7 2 22 330° NW
Ortszeit Stärke Spitze Richtung
km/h Bft. km/h Grad Sektor
Mo, 20.08. 8:00 7 2 11 240° SW
Mo, 20.08. 7:50 7 2 - 240° SW
Mo, 20.08. 7:40 7 2 - 240° SW
Mo, 20.08. 7:30 7 2 11 230° SW
Mo, 20.08. 7:20 7 2 - 230° SW
Mo, 20.08. 7:10 6 1 - 240° SW
Mo, 20.08. 7:00 7 2 9 220° SW
Mo, 20.08. 6:30 7 2 11 210° SW
Mo, 20.08. 6:00 7 2 14 220° SW
Mo, 20.08. 5:30 9 2 15 210° SW
Mo, 20.08. 5:00 9 2 15 220° SW
Ortszeit Untergrenze Bedeckung Gattung
total tief tief mittel hoch
Mo, 20.08. 8:00 2100 m 3/8 3/8 - - -
Mo, 20.08. 2:00 3000 m 1/8 1/8 - - -
So, 19.08. 20:00 12000 m 2/8 0/8 - - -
So, 19.08. 14:00 1800 m 6/8 1/8 - - -
So, 19.08. 8:00 1800 m 7/8 7/8 - - -
So, 19.08. 2:00 2400 m 8/8 2/8 - - -
Sa, 18.08. 20:00 3000 m 1/8 1/8 - - -
Sa, 18.08. 14:00 - 0/8 0/8 - - -
Ortszeit Bedeckungsgrad in Achtel und Wolkenuntergrenze
Mo, 20.08. 8:00 1(2100m) 3(2700m)
Mo, 20.08. 7:50 1(2100m) 3(2700m)
Mo, 20.08. 7:40 9 9 9
Mo, 20.08. 7:30 9 9 9
Mo, 20.08. 7:20 9 9 9
Mo, 20.08. 7:10 9 9 9
Mo, 20.08. 7:00 1(2400m) 9 9
Mo, 20.08. 6:30 3(2400m)
Mo, 20.08. 6:00 2(2400m) 9 9
Mo, 20.08. 5:30 3(2400m) 9 9
Mo, 20.08. 5:00 9 9 9
Ortszeit Luftdruck NN (hPa) Tendenz (hPa in 3 Std.)
Mo, 20.08. 8:00 1020 + 0,1
Mo, 20.08. 2:00 1020 + 0,5
So, 19.08. 20:00 1018 - 0,8
So, 19.08. 14:00 1021 - 1,4
So, 19.08. 8:00 1022 + 0,4
So, 19.08. 2:00 1022 0,0
Sa, 18.08. 20:00 1020 - 0,4
Sa, 18.08. 14:00 1022 - 0,5
Ortszeit Luftdruck NN (hPa) Tendenz (hPa in 3 Std.)
Mo, 20.08. 8:00 1020 + 0,1
Mo, 20.08. 7:50 1020 keine Meldung
Mo, 20.08. 7:40 1020 keine Meldung
Mo, 20.08. 7:30 1020 - 0,1
Mo, 20.08. 7:20 1020 keine Meldung
Mo, 20.08. 7:10 1020 keine Meldung
Mo, 20.08. 7:00 1020 - 0,1
Mo, 20.08. 6:30 1020 - 0,2
Mo, 20.08. 6:00 1020 0,0
Mo, 20.08. 5:30 1020 - 0,1
Mo, 20.08. 5:00 1020 - 0,1
Ortszeit Schneehöhe (cm)
Mo, 20.08. 8:00 -
Mo, 20.08. 2:00 -
So, 19.08. 20:00 -
So, 19.08. 14:00 -
So, 19.08. 8:00 -
So, 19.08. 2:00 -
Sa, 18.08. 20:00 -
Sa, 18.08. 14:00 -
Ortszeit Schneehöhe (cm)
Mo, 20.08. 8:00 -
Mo, 20.08. 7:50 -
Mo, 20.08. 7:40 -
Mo, 20.08. 7:30 -
Mo, 20.08. 7:20 -
Mo, 20.08. 7:10 -
Mo, 20.08. 7:00 -
Mo, 20.08. 6:30 -
Mo, 20.08. 6:00 -
Mo, 20.08. 5:30 -
Mo, 20.08. 5:00 -
Link zu dieser Seite / Seite empfehlen

Das Wetter in ...